Terminal Aerodrome Forecast
Issued by NWS Cleveland, OH

Home | Current Version | Previous Version | Graphics & Text | Print | Product List | Glossary On
Versions: 1 2 3 4 5 6 7 8 9 10 11 12 13 14 15 16 17 18 19 20 21 22 23 24 25 26 27 28 29 30 31 32 33 34 35 36 37
000
FTUS41 KCLE 261100
TAFCLE
TAF
KCLE 261126Z 2612/2718 18008KT P6SM FEW040 BKN250
     FM261500 23008KT P6SM SCT040 BKN200
     FM270300 27006KT P6SM VCTS SCT025 OVC035CB=

USA.gov is the U.S. government's official web portal to all federal, state and local government web resources and services.